QPF
0.00 0.00 0.00 0.00 0.00 0.00 0.00 0.00 0.00 0.00 0.00 0.00 0.00 0.00 0.00 0.00 0.00 0.00 0.00 0.00 0.00 0.01 0.02 0.03 0.05 0.05 0.03 0.02 0.02 0.02 0.02 0.01 0.01 0.01 0.01 0.00 0.00 0.00 0.00 0.00 0.00 0.00 0.00 0.00 0.00 0.00 0.00 0.00 0.00
0.00 0.00 0.00 0.00 0.00 0.00 0.00 0.00 0.00 0.00 0.00 0.00 0.00 0.00 0.00 0.00 0.00 0.00 0.00 0.00 0.00 0.01 0.02 0.01 0.02 0.03 0.02 0.01 0.02 0.02 0.01 0.01 0.01 0.01 0.00 0.00 0.00 0.00 0.00 0.00 0.00 0.00 0.00 0.00 0.00 0.00 0.00 0.00 0.00
0.00 0.00 0.00 0.00 0.00 0.00 0.00 0.00 0.00 0.00 0.00 0.00 0.00 0.00 0.00 0.00 0.00 0.00 0.00 0.00 0.01 0.01 0.01 0.01 0.02 0.03 0.02 0.02 0.02 0.02 0.01 0.01 0.01 0.01 0.00 0.00 0.00 0.00 0.00 0.00 0.00 0.00 0.00 0.00 0.00 0.00 0.00 0.00 0.00
0.00 0.00 0.00 0.00 0.00 0.00 0.00 0.00 0.00 0.00 0.00 0.00 0.00 0.00 0.00 0.00 0.00 0.00 0.00 0.00 0.00 0.00 0.01 0.01 0.01 0.02 0.03 0.02 0.03 0.02 0.02 0.01 0.01 0.01 0.00 0.00 0.00 0.00 0.00 0.00 0.00 0.00 0.00 0.00 0.00 0.00 0.00 0.00 0.00
0.00 0.00 0.00 0.00 0.00 0.00 0.00 0.00 0.00 0.00 0.00 0.00 0.00 0.00 0.00 0.00 0.00 0.00 0.00 0.00 0.00 0.00 0.00 0.00 0.01 0.01 0.02 0.02 0.03 0.03 0.02 0.02 0.01 0.01 0.00 0.00 0.00 0.00 0.00 0.00 0.00 0.00 0.00 0.00 0.00 0.00 0.00 0.00 0.00
0.00 0.00 0.00 0.00 0.00 0.00 0.00 0.00 0.00 0.00 0.00 0.00 0.00 0.00 0.00 0.00 0.00 0.00 0.00 0.00 0.00 0.00 0.00 0.00 0.00 0.00 0.01 0.01 0.02 0.02 0.02 0.01 0.01 0.01 0.00 0.00 0.00 0.00 0.00 0.00 0.00 0.00 0.00 0.00 0.00 0.00 0.00 0.00 0.00
0.00 0.00 0.00 0.00 0.00 0.00 0.00 0.00 0.00 0.00 0.00 0.00 0.00 0.00 0.00 0.00 0.00 0.00 0.00 0.00 0.00 0.00 0.00 0.00 0.00 0.00 0.00 0.01 0.01 0.01 0.01 0.01 0.01 0.01 0.01 0.01 0.00 0.00 0.00 0.00 0.00 0.00 0.00 0.00 0.00 0.00 0.00 0.00 0.00
0.00 0.00 0.00 0.00 0.00 0.00 0.00 0.00 0.00 0.00 0.00 0.00 0.00 0.00 0.00 0.00 0.00 0.00 0.00 0.00 0.00 0.00 0.00 0.00 0.00 0.00 0.00 0.01 0.01 0.01 0.01 0.02 0.02 0.01 0.01 0.01 0.01 0.00 0.00 0.00 0.00 0.00 0.00 0.00 0.00 0.00 0.00 0.00 0.00
0.00 0.00 0.00 0.00 0.00 0.00 0.00 0.00 0.00 0.00 0.00 0.00 0.00 0.00 0.00 0.00 0.00 0.00 0.00 0.00 0.00 0.00 0.00 0.00 0.00 0.00 0.00 0.00 0.01 0.01 0.01 0.02 0.02 0.02 0.01 0.00 0.01 0.01 0.00 0.00 0.00 0.00 0.00 0.00 0.00 0.00 0.00 0.00 0.00
0.00 0.00 0.00 0.00 0.00 0.00 0.00 0.00 0.00 0.00 0.00 0.00 0.00 0.00 0.00 0.00 0.00 0.00 0.00 0.00 0.00 0.00 0.00 0.00 0.00 0.00 0.00 0.00 0.01 0.01 0.01 0.01 0.01 0.01 0.01 0.01 0.01 0.01 0.01 0.01 0.01 0.01 0.00 0.00 0.00 0.00 0.00 0.00 0.00
0.00 0.00 0.00 0.00 0.00 0.00 0.00 0.00 0.00 0.00 0.00 0.00 0.00 0.00 0.00 0.00 0.00 0.00 0.00 0.00 0.00 0.00 0.00 0.00 0.00 0.00 0.00 0.00 0.01 0.01 0.01 0.01 0.01 0.01 0.01 0.02 0.01 0.01 0.01 0.01 0.00 0.00 0.00 0.00 0.00 0.00 0.00 0.00 0.00
0.00 0.00 0.00 0.00 0.00 0.00 0.00 0.00 0.00 0.00 0.00 0.00 0.00 0.00 0.00 0.00 0.00 0.00 0.00 0.00 0.00 0.00 0.00 0.00 0.00 0.00 0.00 0.00 0.00 0.01 0.01 0.01 0.01 0.01 0.02 0.02 0.02 0.01 0.01 0.01 0.00 0.00 0.00 0.00 0.00 0.00 0.00 0.00 0.00
0.00 0.00 0.00 0.00 0.00 0.00 0.00 0.00 0.00 0.00 0.00 0.00 0.00 0.00 0.00 0.00 0.00 0.00 0.00 0.00 0.00 0.00 0.00 0.00 0.00 0.00 0.00 0.00 0.00 0.00 0.00 0.00 0.01 0.01 0.01 0.02 0.01 0.01 0.01 0.01 0.00 0.00 0.00 0.00 0.00 0.00 0.00 0.00 0.00
0.00 0.00 0.00 0.00 0.00 0.00 0.00 0.00 0.00 0.00 0.00 0.00 0.00 0.00 0.00 0.00 0.00 0.00 0.00 0.00 0.00 0.00 0.00 0.00 0.00 0.00 0.00 0.00 0.00 0.00 0.00 0.00 0.00 0.01 0.01 0.01 0.02 0.01 0.01 0.01 0.01 0.01 0.01 0.00 0.00 0.00 0.00 0.00 0.00
0.00 0.00 0.00 0.00 0.00 0.00 0.00 0.00 0.00 0.00 0.00 0.00 0.00 0.00 0.00 0.00 0.00 0.00 0.00 0.00 0.00 0.00 0.00 0.00 0.00 0.00 0.00 0.00 0.00 0.00 0.00 0.00 0.00 0.00 0.01 0.01 0.01 0.01 0.01 0.00 0.00 0.00 0.00 0.01 0.00 0.00 0.00 0.00 0.00
0.00 0.00 0.00 0.00 0.00 0.00 0.00 0.00 0.00 0.00 0.00 0.00 0.00 0.00 0.00 0.00 0.00 0.00 0.00 0.00 0.00 0.00 0.00 0.00 0.00 0.00 0.00 0.00 0.00 0.00 0.00 0.00 0.00 0.00 0.00 0.01 0.01 0.01 0.00 0.00 0.00 0.00 0.00 0.00 0.00 0.00 0.00 0.00 0.00
0.00 0.00 0.00 0.00 0.00 0.00 0.00 0.00 0.00 0.00 0.00 0.00 0.00 0.00 0.00 0.00 0.00 0.00 0.00 0.00 0.00 0.00 0.00 0.00 0.00 0.00 0.00 0.00 0.00 0.00 0.00 0.00 0.00 0.00 0.00 0.00 0.00 0.00 0.00 0.00 0.00 0.00 0.00 0.00 0.00 0.00 0.00 0.00 0.00
0.00 0.00 0.00 0.00 0.00 0.00 0.00 0.00 0.00 0.00 0.00 0.00 0.00 0.00 0.00 0.00 0.00 0.00 0.00 0.00 0.00 0.00 0.00 0.00 0.00 0.00 0.00 0.00 0.00 0.00 0.00 0.00 0.00 0.00 0.00 0.00 0.00 0.00 0.00 0.00 0.00 0.00 0.00 0.00 0.00 0.00 0.00 0.00 0.00
0.00 0.00 0.00 0.00 0.00 0.00 0.00 0.00 0.00 0.00 0.00 0.00 0.00 0.00 0.00 0.00 0.00 0.00 0.00 0.00 0.00 0.00 0.00 0.00 0.00 0.00 0.00 0.00 0.00 0.00 0.00 0.00 0.00 0.00 0.00 0.00 0.00 0.00 0.00 0.00 0.00 0.00 0.00 0.00 0.00 0.00 0.00 0.00 0.00
0.00 0.00 0.00 0.00 0.00 0.00 0.00 0.00 0.00 0.00 0.00 0.00 0.00 0.00 0.00 0.00 0.00 0.00 0.00 0.00 0.00 0.00 0.00 0.00 0.00 0.00 0.00 0.00 0.00 0.00 0.00 0.00 0.00 0.00 0.00 0.00 0.00 0.00 0.00 0.00 0.00 0.00 0.00 0.00 0.00 0.00 0.00 0.00 0.00
0.00 0.00 0.00 0.00 0.00 0.00 0.00 0.00 0.00 0.00 0.00 0.00 0.00 0.00 0.00 0.00 0.00 0.00 0.00 0.00 0.00 0.00 0.00 0.00 0.00 0.00 0.00 0.00 0.00 0.00 0.00 0.00 0.00 0.00 0.00 0.00 0.00 0.00 0.00 0.00 0.00 0.00 0.00 0.00 0.00 0.00 0.00 0.00 0.00
0.00 0.00 0.00 0.00 0.00 0.00 0.00 0.00 0.00 0.00 0.00 0.00 0.00 0.00 0.00 0.00 0.00 0.00 0.00 0.00 0.00 0.00 0.00 0.00 0.00 0.00 0.00 0.00 0.00 0.00 0.00 0.00 0.00 0.00 0.00 0.00 0.00 0.00 0.00 0.00 0.00 0.00 0.00 0.00 0.00 0.00 0.00 0.00 0.00
0.00 0.00 0.00 0.00 0.00 0.00 0.00 0.00 0.00 0.00 0.00 0.00 0.00 0.00 0.00 0.00 0.00 0.00 0.00 0.00 0.00 0.00 0.00 0.00 0.00 0.00 0.00 0.00 0.00 0.00 0.00 0.00 0.00 0.00 0.00 0.00 0.00 0.00 0.00 0.00 0.00 0.00 0.00 0.00 0.00 0.00 0.00 0.00 0.00
0.00 0.00 0.00 0.00 0.00 0.00 0.00 0.00 0.00 0.00 0.00 0.00 0.00 0.00 0.00 0.00 0.00 0.00 0.00 0.00 0.00 0.00 0.00 0.00 0.00 0.00 0.00 0.00 0.00 0.00 0.00 0.00 0.00 0.00 0.00 0.00 0.00 0.00 0.00 0.00 0.00 0.00 0.00 0.00 0.00 0.00 0.00 0.00 0.00
0.00 0.00 0.00 0.00 0.00 0.00 0.00 0.00 0.00 0.00 0.00 0.00 0.00 0.00 0.00 0.00 0.00 0.00 0.00 0.00 0.00 0.00 0.00 0.00 0.00 0.00 0.00 0.00 0.00 0.00 0.00 0.00 0.00 0.00 0.00 0.00 0.00 0.00 0.00 0.00 0.00 0.00 0.00 0.00 0.00 0.00 0.00 0.00 0.00
0.00 0.00 0.00 0.00 0.00 0.00 0.00 0.00 0.00 0.00 0.00 0.00 0.00 0.00 0.00 0.00 0.00 0.00 0.00 0.00 0.00 0.00 0.00 0.00 0.00 0.00 0.00 0.00 0.00 0.00 0.00 0.00 0.00 0.00 0.00 0.00 0.00 0.00 0.00 0.00 0.00 0.00 0.00 0.00 0.00 0.00 0.00 0.00 0.00
0.00 0.00 0.00 0.00 0.00 0.00 0.00 0.00 0.00 0.00 0.00 0.00 0.00 0.00 0.00 0.00 0.00 0.00 0.00 0.00 0.00 0.00 0.00 0.00 0.00 0.00 0.00 0.00 0.00 0.00 0.00 0.00 0.00 0.00 0.00 0.00 0.00 0.00 0.00 0.00 0.00 0.00 0.00 0.00 0.00 0.00 0.00 0.00 0.00
0.00 0.00 0.00 0.00 0.00 0.00 0.00 0.00 0.00 0.00 0.00 0.00 0.00 0.00 0.00 0.00 0.00 0.00 0.00 0.00 0.00 0.00 0.00 0.00 0.00 0.00 0.00 0.00 0.00 0.00 0.00 0.00 0.00 0.00 0.00 0.00 0.00 0.00 0.00 0.00 0.00 0.00 0.00 0.00 0.00 0.00 0.00 0.00 0.00
0.00 0.00 0.00 0.00 0.00 0.00 0.00 0.00 0.00 0.00 0.00 0.00 0.00 0.00 0.00 0.00 0.00 0.00 0.00 0.00 0.00 0.00 0.00 0.00 0.00 0.00 0.00 0.00 0.00 0.00 0.00 0.00 0.00 0.00 0.00 0.00 0.00 0.00 0.00 0.00 0.00 0.00 0.00 0.00 0.00 0.00 0.00 0.00 0.00
0.00 0.00 0.00 0.00 0.00 0.00 0.00 0.00 0.00 0.00 0.00 0.00 0.00 0.00 0.00 0.00 0.00 0.00 0.00 0.00 0.00 0.00 0.00 0.00 0.00 0.00 0.00 0.00 0.00 0.00 0.00 0.00 0.00 0.00 0.00 0.00 0.00 0.00 0.00 0.00 0.00 0.00 0.00 0.00 0.00 0.00 0.00 0.00 0.00
MSLP
1014.31 1015.13 1016.18 1017.37 1018.58 1019.70 1020.65 1021.38 1021.87 1022.14 1022.25 1022.25 1022.19 1022.11 1022.02 1021.91 1021.77 1021.57 1021.33 1021.04 1020.76 1020.49 1020.31 1020.22 1020.26 1020.40 1020.63 1020.90 1021.18 1021.42 1021.61 1021.75 1021.85 1021.93 1022.02 1022.12 1022.22 1022.32 1022.39 1022.41 1022.38 1022.30 1022.19 1022.08 1022.00 1021.97 1022.01 1022.10 1022.23
1014.86 1015.84 1017.00 1018.22 1019.36 1020.35 1021.09 1021.58 1021.82 1021.88 1021.84 1021.74 1021.65 1021.59 1021.54 1021.49 1021.40 1021.26 1021.04 1020.77 1020.50 1020.26 1020.10 1020.06 1020.15 1020.35 1020.65 1020.98 1021.31 1021.61 1021.85 1022.04 1022.19 1022.32 1022.45 1022.58 1022.71 1022.80 1022.86 1022.87 1022.81 1022.71 1022.58 1022.47 1022.40 1022.39 1022.44 1022.56 1022.72
1015.51 1016.61 1017.82 1019.01 1020.04 1020.84 1021.37 1021.62 1021.66 1021.56 1021.40 1021.26 1021.17 1021.14 1021.16 1021.16 1021.12 1021.01 1020.82 1020.57 1020.32 1020.10 1019.99 1020.00 1020.15 1020.42 1020.76 1021.14 1021.51 1021.84 1022.12 1022.33 1022.52 1022.67 1022.83 1022.97 1023.10 1023.20 1023.24 1023.23 1023.16 1023.05 1022.93 1022.84 1022.79 1022.82 1022.92 1023.07 1023.25
1016.23 1017.40 1018.61 1019.71 1020.59 1021.20 1021.51 1021.56 1021.44 1021.22 1021.01 1020.86 1020.81 1020.84 1020.91 1020.96 1020.96 1020.87 1020.70 1020.47 1020.25 1020.08 1020.02 1020.08 1020.29 1020.61 1020.99 1021.39 1021.77 1022.10 1022.37 1022.59 1022.78 1022.95 1023.11 1023.26 1023.40 1023.50 1023.54 1023.53 1023.46 1023.37 1023.28 1023.23 1023.23 1023.31 1023.45 1023.65 1023.86
1016.94 1018.14 1019.29 1020.27 1020.99 1021.40 1021.53 1021.43 1021.19 1020.92 1020.71 1020.60 1020.60 1020.68 1020.81 1020.90 1020.92 1020.85 1020.70 1020.50 1020.31 1020.19 1020.19 1020.32 1020.57 1020.91 1021.30 1021.69 1022.05 1022.35 1022.59 1022.79 1022.96 1023.13 1023.30 1023.47 1023.62 1023.73 1023.79 1023.80 1023.76 1023.71 1023.66 1023.67 1023.73 1023.87 1024.06 1024.30 1024.54
1017.59 1018.76 1019.82 1020.65 1021.19 1021.44 1021.41 1021.21 1020.93 1020.66 1020.49 1020.45 1020.52 1020.67 1020.84 1020.96 1021.00 1020.93 1020.79 1020.62 1020.48 1020.41 1020.47 1020.64 1020.92 1021.27 1021.64 1021.99 1022.29 1022.53 1022.73 1022.89 1023.06 1023.23 1023.42 1023.62 1023.80 1023.95 1024.05 1024.09 1024.10 1024.10 1024.11 1024.17 1024.30 1024.50 1024.74 1025.01 1025.26
1018.12 1019.21 1020.13 1020.81 1021.19 1021.28 1021.16 1020.91 1020.63 1020.42 1020.33 1020.37 1020.53 1020.74 1020.94 1021.08 1021.12 1021.06 1020.94 1020.80 1020.70 1020.69 1020.79 1021.00 1021.29 1021.62 1021.94 1022.23 1022.45 1022.63 1022.78 1022.92 1023.08 1023.28 1023.52 1023.76 1024.00 1024.20 1024.35 1024.45 1024.51 1024.56 1024.63 1024.75 1024.93 1025.17 1025.45 1025.74 1026.01
1018.49 1019.47 1020.24 1020.74 1020.97 1020.95 1020.76 1020.51 1020.28 1020.16 1020.17 1020.32 1020.56 1020.83 1021.06 1021.20 1021.24 1021.19 1021.09 1020.98 1020.93 1020.97 1021.11 1021.33 1021.61 1021.90 1022.16 1022.37 1022.52 1022.64 1022.75 1022.88 1023.07 1023.31 1023.60 1023.92 1024.23 1024.49 1024.70 1024.86 1024.97 1025.07 1025.18 1025.35 1025.57 1025.84 1026.15 1026.46 1026.73
1018.72 1019.54 1020.14 1020.48 1020.57 1020.47 1020.26 1020.03 1019.88 1019.86 1019.99 1020.24 1020.55 1020.87 1021.12 1021.27 1021.32 1021.28 1021.20 1021.13 1021.12 1021.20 1021.37 1021.60 1021.86 1022.10 1022.29 1022.42 1022.51 1022.58 1022.67 1022.81 1023.04 1023.34 1023.71 1024.10 1024.48 1024.82 1025.09 1025.29 1025.45 1025.59 1025.74 1025.94 1026.18 1026.48 1026.80 1027.12 1027.41
1018.82 1019.48 1019.90 1020.09 1020.06 1019.90 1019.69 1019.52 1019.46 1019.55 1019.78 1020.11 1020.49 1020.84 1021.10 1021.26 1021.32 1021.30 1021.25 1021.23 1021.27 1021.38 1021.57 1021.80 1022.02 1022.20 1022.33 1022.40 1022.43 1022.47 1022.56 1022.73 1023.00 1023.37 1023.81 1024.28 1024.72 1025.12 1025.44 1025.69 1025.88 1026.06 1026.25 1026.47 1026.74 1027.06 1027.40 1027.73 1028.03
1018.85 1019.34 1019.60 1019.65 1019.54 1019.35 1019.15 1019.04 1019.06 1019.24 1019.55 1019.95 1020.36 1020.73 1021.01 1021.17 1021.24 1021.25 1021.24 1021.27 1021.36 1021.51 1021.71 1021.93 1022.12 1022.25 1022.32 1022.34 1022.33 1022.36 1022.45 1022.65 1022.97 1023.39 1023.89 1024.41 1024.91 1025.34 1025.71 1025.99 1026.23 1026.44 1026.66 1026.92 1027.23 1027.57 1027.93 1028.29 1028.61
1018.87 1019.20 1019.33 1019.28 1019.11 1018.90 1018.73 1018.68 1018.76 1019.01 1019.37 1019.80 1020.22 1020.58 1020.85 1021.03 1021.11 1021.16 1021.20 1021.28 1021.41 1021.60 1021.81 1022.01 1022.18 1022.27 1022.30 1022.28 1022.25 1022.27 1022.37 1022.60 1022.94 1023.40 1023.92 1024.46 1024.98 1025.45 1025.84 1026.16 1026.44 1026.70 1026.98 1027.29 1027.64 1028.03 1028.43 1028.82 1029.18
1018.93 1019.15 1019.18 1019.06 1018.86 1018.66 1018.52 1018.51 1018.64 1018.91 1019.28 1019.69 1020.09 1020.42 1020.68 1020.84 1020.95 1021.03 1021.12 1021.25 1021.44 1021.65 1021.88 1022.08 1022.22 1022.29 1022.29 1022.25 1022.22 1022.24 1022.35 1022.58 1022.93 1023.38 1023.89 1024.43 1024.94 1025.41 1025.82 1026.18 1026.51 1026.84 1027.19 1027.58 1028.01 1028.46 1028.92 1029.36 1029.77
1019.09 1019.23 1019.20 1019.05 1018.85 1018.67 1018.56 1018.58 1018.72 1018.97 1019.30 1019.66 1019.99 1020.27 1020.49 1020.64 1020.76 1020.88 1021.02 1021.20 1021.43 1021.67 1021.91 1022.11 1022.25 1022.31 1022.30 1022.27 1022.24 1022.27 1022.39 1022.61 1022.94 1023.36 1023.84 1024.33 1024.81 1025.27 1025.69 1026.09 1026.48 1026.90 1027.35 1027.83 1028.35 1028.89 1029.42 1029.92 1030.38
1019.36 1019.45 1019.40 1019.26 1019.08 1018.94 1018.86 1018.87 1018.98 1019.18 1019.43 1019.68 1019.92 1020.12 1020.28 1020.41 1020.53 1020.68 1020.86 1021.09 1021.36 1021.64 1021.89 1022.10 1022.24 1022.31 1022.33 1022.32 1022.32 1022.37 1022.49 1022.70 1023.00 1023.37 1023.78 1024.22 1024.65 1025.08 1025.51 1025.95 1026.42 1026.92 1027.48 1028.07 1028.69 1029.32 1029.93 1030.49 1031.00
1019.71 1019.79 1019.75 1019.65 1019.52 1019.41 1019.34 1019.33 1019.38 1019.47 1019.59 1019.71 1019.82 1019.91 1020.00 1020.09 1020.22 1020.39 1020.62 1020.89 1021.20 1021.50 1021.78 1022.00 1022.17 1022.27 1022.33 1022.37 1022.42 1022.51 1022.65 1022.86 1023.13 1023.45 1023.79 1024.16 1024.54 1024.94 1025.37 1025.84 1026.37 1026.96 1027.61 1028.31 1029.02 1029.73 1030.40 1031.02 1031.58
1020.11 1020.20 1020.20 1020.16 1020.08 1019.99 1019.92 1019.86 1019.80 1019.76 1019.71 1019.66 1019.61 1019.58 1019.59 1019.65 1019.78 1019.98 1020.24 1020.56 1020.89 1021.22 1021.53 1021.78 1021.99 1022.14 1022.27 1022.38 1022.50 1022.66 1022.85 1023.07 1023.33 1023.61 1023.90 1024.21 1024.54 1024.91 1025.34 1025.83 1026.41 1027.06 1027.77 1028.54 1029.31 1030.07 1030.80 1031.46 1032.05
1020.49 1020.61 1020.68 1020.69 1020.66 1020.60 1020.49 1020.34 1020.15 1019.92 1019.68 1019.43 1019.22 1019.06 1018.99 1019.01 1019.14 1019.38 1019.68 1020.04 1020.42 1020.79 1021.12 1021.41 1021.66 1021.88 1022.09 1022.30 1022.53 1022.77 1023.03 1023.31 1023.58 1023.85 1024.12 1024.39 1024.69 1025.03 1025.44 1025.94 1026.53 1027.21 1027.95 1028.74 1029.53 1030.31 1031.05 1031.73 1032.35
1020.77 1020.95 1021.08 1021.17 1021.18 1021.11 1020.95 1020.68 1020.32 1019.88 1019.41 1018.96 1018.57 1018.28 1018.14 1018.14 1018.29 1018.57 1018.94 1019.35 1019.77 1020.18 1020.55 1020.88 1021.19 1021.48 1021.79 1022.10 1022.44 1022.80 1023.16 1023.51 1023.84 1024.13 1024.40 1024.67 1024.95 1025.28 1025.67 1026.16 1026.73 1027.39 1028.12 1028.88 1029.65 1030.41 1031.13 1031.81 1032.44
1020.90 1021.15 1021.36 1021.52 1021.56 1021.48 1021.23 1020.81 1020.25 1019.58 1018.88 1018.21 1017.65 1017.25 1017.05 1017.05 1017.24 1017.58 1018.02 1018.50 1018.98 1019.43 1019.84 1020.22 1020.58 1020.95 1021.34 1021.77 1022.23 1022.70 1023.18 1023.63 1024.03 1024.39 1024.70 1024.99 1025.28 1025.60 1025.98 1026.44 1026.98 1027.59 1028.25 1028.95 1029.66 1030.36 1031.03 1031.69 1032.32
1020.83 1021.17 1021.47 1021.69 1021.77 1021.64 1021.29 1020.70 1019.93 1019.02 1018.08 1017.21 1016.49 1016.00 1015.76 1015.78 1016.04 1016.47 1016.99 1017.55 1018.10 1018.60 1019.05 1019.47 1019.87 1020.30 1020.77 1021.29 1021.86 1022.45 1023.04 1023.60 1024.10 1024.54 1024.91 1025.25 1025.57 1025.91 1026.29 1026.72 1027.21 1027.76 1028.34 1028.95 1029.56 1030.18 1030.79 1031.41 1032.02
1020.55 1020.99 1021.40 1021.69 1021.78 1021.61 1021.14 1020.38 1019.39 1018.25 1017.10 1016.04 1015.19 1014.62 1014.38 1014.45 1014.79 1015.31 1015.94 1016.59 1017.21 1017.76 1018.25 1018.69 1019.12 1019.59 1020.11 1020.70 1021.35 1022.04 1022.73 1023.39 1023.99 1024.52 1024.98 1025.38 1025.76 1026.13 1026.52 1026.95 1027.40 1027.88 1028.39 1028.90 1029.42 1029.95 1030.49 1031.06 1031.66
1020.11 1020.67 1021.18 1021.53 1021.64 1021.41 1020.83 1019.90 1018.71 1017.36 1016.01 1014.81 1013.86 1013.26 1013.04 1013.17 1013.60 1014.24 1014.97 1015.71 1016.40 1016.99 1017.51 1017.96 1018.40 1018.88 1019.43 1020.05 1020.75 1021.50 1022.26 1023.00 1023.68 1024.30 1024.85 1025.34 1025.79 1026.22 1026.65 1027.09 1027.53 1027.98 1028.43 1028.87 1029.31 1029.76 1030.23 1030.75 1031.32
1019.56 1020.23 1020.84 1021.25 1021.36 1021.08 1020.39 1019.31 1017.95 1016.44 1014.95 1013.64 1012.64 1012.04 1011.86 1012.07 1012.61 1013.34 1014.17 1014.99 1015.73 1016.36 1016.88 1017.33 1017.77 1018.24 1018.77 1019.40 1020.11 1020.89 1021.69 1022.48 1023.23 1023.92 1024.55 1025.12 1025.66 1026.17 1026.67 1027.15 1027.61 1028.06 1028.48 1028.88 1029.27 1029.67 1030.09 1030.56 1031.10
1018.98 1019.76 1020.44 1020.89 1020.98 1020.64 1019.85 1018.66 1017.17 1015.55 1013.98 1012.63 1011.63 1011.06 1010.95 1011.25 1011.88 1012.70 1013.60 1014.47 1015.24 1015.88 1016.40 1016.83 1017.24 1017.68 1018.20 1018.80 1019.50 1020.27 1021.08 1021.89 1022.68 1023.42 1024.12 1024.78 1025.40 1026.01 1026.59 1027.14 1027.67 1028.15 1028.59 1028.99 1029.36 1029.72 1030.11 1030.55 1031.05
1018.45 1019.29 1020.00 1020.45 1020.51 1020.11 1019.24 1017.96 1016.40 1014.73 1013.15 1011.81 1010.86 1010.37 1010.35 1010.74 1011.44 1012.33 1013.27 1014.16 1014.93 1015.56 1016.05 1016.46 1016.84 1017.24 1017.72 1018.30 1018.97 1019.72 1020.51 1021.32 1022.12 1022.90 1023.65 1024.38 1025.08 1025.78 1026.45 1027.10 1027.70 1028.25 1028.74 1029.16 1029.55 1029.91 1030.28 1030.69 1031.16
1018.00 1018.84 1019.54 1019.94 1019.93 1019.45 1018.51 1017.19 1015.62 1013.97 1012.44 1011.19 1010.35 1009.96 1010.04 1010.52 1011.28 1012.20 1013.14 1014.02 1014.76 1015.35 1015.80 1016.17 1016.52 1016.89 1017.35 1017.90 1018.54 1019.26 1020.04 1020.83 1021.63 1022.42 1023.20 1023.98 1024.75 1025.53 1026.29 1027.03 1027.72 1028.35 1028.90 1029.38 1029.79 1030.16 1030.52 1030.92 1031.36
1017.62 1018.41 1019.02 1019.31 1019.20 1018.63 1017.64 1016.30 1014.77 1013.21 1011.80 1010.70 1010.01 1009.76 1009.95 1010.50 1011.29 1012.21 1013.13 1013.95 1014.63 1015.16 1015.57 1015.90 1016.22 1016.59 1017.03 1017.57 1018.20 1018.91 1019.66 1020.44 1021.23 1022.02 1022.82 1023.62 1024.44 1025.28 1026.11 1026.93 1027.70 1028.40 1029.02 1029.55 1029.99 1030.39 1030.75 1031.14 1031.56
1017.25 1017.92 1018.37 1018.52 1018.26 1017.60 1016.56 1015.25 1013.80 1012.38 1011.15 1010.24 1009.73 1009.65 1009.95 1010.56 1011.36 1012.24 1013.09 1013.84 1014.44 1014.90 1015.26 1015.57 1015.88 1016.25 1016.71 1017.26 1017.91 1018.62 1019.37 1020.14 1020.92 1021.70 1022.49 1023.31 1024.15 1025.01 1025.89 1026.76 1027.59 1028.35 1029.02 1029.59 1030.07 1030.48 1030.85 1031.23 1031.64
1016.80 1017.28 1017.54 1017.49 1017.08 1016.32 1015.26 1013.99 1012.67 1011.43 1010.41 1009.72 1009.42 1009.49 1009.89 1010.54 1011.33 1012.16 1012.92 1013.57 1014.08 1014.48 1014.79 1015.08 1015.41 1015.81 1016.31 1016.91 1017.59 1018.32 1019.09 1019.86 1020.63 1021.40 1022.18 1022.99 1023.83 1024.71 1025.60 1026.50 1027.36 1028.14 1028.84 1029.44 1029.94 1030.37 1030.76 1031.13 1031.54
Thickness
5746 5748 5747 5736 5708 5678 5679 5687 5691 5692 5691 5692 5692 5688 5682 5681 5680 5679 5691 5696 5695 5693 5691 5689 5687 5685 5684 5683 5681 5681 5680 5680 5680 5680 5680 5681 5681 5682 5683 5684 5685 5686 5687 5687 5687 5687 5687 5687 5686
5747 5749 5739 5718 5688 5668 5677 5691 5692 5696 5696 5692 5691 5689 5686 5686 5690 5692 5695 5697 5696 5694 5692 5690 5688 5686 5684 5683 5681 5680 5679 5679 5678 5678 5678 5678 5678 5679 5680 5680 5681 5682 5683 5683 5683 5682 5682 5682 5681
5749 5746 5724 5701 5684 5675 5685 5697 5697 5698 5696 5695 5689 5688 5688 5688 5692 5695 5698 5699 5697 5695 5693 5690 5688 5686 5685 5683 5681 5680 5679 5678 5677 5676 5676 5676 5676 5676 5676 5677 5678 5678 5679 5679 5678 5678 5677 5677 5676
5745 5732 5713 5695 5693 5691 5696 5702 5698 5695 5695 5694 5690 5686 5689 5692 5694 5697 5699 5700 5698 5695 5693 5691 5689 5687 5685 5683 5682 5680 5679 5677 5676 5675 5674 5674 5673 5673 5673 5673 5674 5674 5674 5674 5673 5673 5673 5672 5671
5737 5718 5698 5686 5696 5702 5703 5705 5700 5699 5697 5694 5690 5686 5688 5694 5696 5698 5699 5699 5698 5695 5693 5691 5689 5687 5686 5684 5682 5680 5678 5677 5675 5674 5673 5672 5671 5670 5670 5670 5670 5670 5670 5669 5668 5668 5667 5666 5665
5720 5707 5684 5681 5696 5704 5708 5708 5704 5702 5697 5693 5690 5687 5690 5695 5696 5697 5698 5698 5697 5695 5693 5691 5689 5687 5686 5684 5682 5680 5678 5676 5674 5673 5671 5669 5668 5667 5667 5666 5666 5665 5665 5664 5663 5663 5662 5660 5659
5713 5698 5687 5690 5693 5702 5710 5708 5704 5700 5698 5695 5693 5688 5690 5694 5695 5695 5696 5695 5694 5693 5692 5690 5688 5687 5685 5683 5681 5679 5677 5675 5673 5671 5669 5667 5666 5664 5663 5662 5662 5661 5660 5659 5658 5657 5656 5654 5653
5716 5699 5688 5683 5690 5701 5711 5708 5708 5702 5701 5697 5696 5692 5691 5696 5694 5693 5693 5692 5692 5691 5690 5689 5687 5686 5684 5682 5680 5678 5676 5674 5672 5670 5668 5665 5663 5661 5659 5658 5657 5656 5655 5654 5653 5652 5650 5648 5647
5718 5693 5684 5685 5688 5703 5710 5708 5704 5701 5696 5695 5695 5697 5697 5695 5692 5691 5690 5689 5688 5688 5687 5686 5685 5684 5683 5681 5679 5677 5675 5673 5671 5668 5666 5663 5661 5658 5656 5654 5653 5651 5650 5648 5647 5646 5644 5642 5640
5707 5688 5695 5702 5699 5707 5707 5707 5701 5700 5698 5696 5695 5695 5693 5691 5690 5690 5689 5688 5686 5685 5684 5684 5683 5682 5681 5680 5678 5675 5673 5671 5669 5666 5664 5661 5659 5656 5653 5650 5649 5647 5645 5643 5641 5640 5638 5636 5634
5707 5697 5706 5709 5709 5709 5706 5705 5700 5699 5697 5700 5700 5697 5691 5689 5688 5688 5688 5687 5685 5683 5682 5681 5680 5680 5679 5678 5676 5674 5671 5669 5667 5665 5662 5659 5656 5653 5650 5647 5644 5642 5640 5638 5635 5634 5632 5630 5627
5704 5703 5707 5708 5711 5708 5706 5702 5699 5698 5705 5706 5705 5700 5693 5690 5688 5688 5687 5684 5682 5680 5680 5678 5678 5677 5676 5675 5674 5672 5670 5667 5665 5663 5660 5657 5654 5650 5647 5643 5640 5638 5635 5632 5630 5627 5625 5622 5619
5700 5701 5704 5706 5707 5706 5704 5701 5702 5700 5702 5700 5699 5694 5691 5690 5688 5686 5684 5681 5679 5677 5677 5676 5675 5674 5673 5672 5671 5669 5667 5665 5663 5660 5658 5655 5652 5648 5644 5640 5636 5633 5630 5627 5624 5621 5617 5614 5611
5696 5697 5699 5700 5701 5702 5700 5699 5698 5702 5697 5694 5692 5690 5689 5687 5686 5682 5679 5678 5676 5676 5674 5673 5672 5671 5670 5669 5667 5665 5663 5662 5660 5657 5655 5652 5649 5645 5640 5636 5632 5628 5625 5622 5618 5614 5610 5606 5602
5693 5690 5692 5694 5694 5696 5695 5691 5693 5701 5691 5691 5688 5686 5685 5683 5681 5680 5679 5677 5675 5673 5672 5670 5669 5668 5667 5666 5664 5661 5659 5658 5656 5653 5651 5649 5645 5641 5637 5632 5627 5623 5619 5616 5611 5607 5602 5597 5592
5682 5675 5674 5683 5686 5688 5685 5680 5693 5693 5688 5688 5684 5681 5680 5680 5679 5678 5676 5674 5672 5670 5668 5667 5666 5665 5664 5662 5659 5657 5655 5653 5651 5649 5647 5644 5641 5637 5632 5627 5622 5617 5614 5609 5604 5599 5594 5587 5582
5663 5660 5665 5673 5680 5678 5677 5677 5689 5682 5681 5683 5681 5678 5676 5676 5677 5677 5675 5672 5669 5667 5664 5663 5662 5660 5659 5656 5654 5652 5649 5647 5645 5643 5641 5638 5635 5631 5627 5621 5616 5611 5607 5602 5597 5591 5586 5578 5571
5651 5652 5656 5662 5672 5668 5666 5671 5681 5679 5676 5678 5677 5675 5673 5676 5686 5682 5674 5669 5666 5663 5661 5659 5657 5655 5653 5650 5647 5644 5642 5639 5637 5636 5634 5631 5628 5624 5620 5614 5609 5605 5599 5593 5588 5582 5576 5570 5564
5655 5650 5653 5658 5665 5660 5658 5665 5679 5681 5673 5674 5676 5676 5678 5684 5689 5679 5672 5667 5662 5659 5657 5656 5653 5651 5648 5645 5641 5638 5634 5631 5629 5628 5626 5624 5620 5617 5613 5607 5602 5597 5592 5586 5581 5574 5566 5558 5553
5649 5646 5646 5650 5655 5650 5651 5658 5674 5679 5677 5681 5685 5686 5686 5687 5684 5678 5670 5665 5662 5659 5656 5653 5651 5647 5644 5641 5638 5633 5628 5623 5620 5618 5616 5614 5612 5608 5605 5601 5595 5590 5584 5577 5572 5567 5556 5547 5544
5638 5638 5639 5639 5644 5645 5642 5649 5668 5682 5682 5684 5686 5689 5691 5691 5691 5685 5673 5667 5662 5659 5656 5653 5649 5644 5640 5636 5631 5625 5619 5614 5610 5607 5605 5603 5601 5599 5596 5592 5587 5582 5577 5571 5565 5561 5554 5541 5533
5631 5636 5635 5633 5628 5625 5633 5621 5657 5675 5682 5686 5691 5690 5693 5695 5693 5687 5677 5668 5664 5662 5655 5650 5646 5641 5636 5631 5626 5623 5620 5613 5606 5601 5596 5593 5591 5588 5585 5582 5578 5573 5568 5563 5557 5552 5547 5539 5528
5634 5634 5627 5625 5618 5614 5616 5613 5642 5664 5673 5688 5696 5700 5702 5699 5692 5686 5680 5674 5665 5657 5651 5646 5641 5636 5631 5626 5621 5618 5615 5607 5598 5591 5587 5583 5579 5577 5574 5571 5568 5563 5558 5553 5548 5543 5537 5531 5522
5623 5619 5611 5602 5601 5603 5615 5611 5634 5654 5676 5690 5699 5703 5702 5696 5688 5682 5675 5667 5659 5651 5646 5641 5636 5631 5626 5620 5615 5612 5607 5598 5590 5584 5578 5572 5568 5565 5562 5560 5557 5553 5548 5543 5538 5533 5527 5521 5514
5619 5606 5592 5592 5585 5605 5614 5614 5643 5665 5679 5691 5698 5700 5696 5688 5680 5672 5664 5658 5653 5646 5641 5636 5631 5626 5620 5613 5608 5604 5599 5593 5588 5580 5573 5565 5559 5555 5551 5549 5545 5542 5538 5532 5527 5521 5515 5509 5502
5607 5609 5594 5583 5582 5596 5601 5603 5643 5661 5668 5674 5679 5682 5680 5677 5670 5664 5658 5653 5648 5642 5636 5631 5626 5620 5613 5607 5601 5596 5590 5585 5581 5576 5569 5562 5556 5550 5544 5539 5535 5531 5526 5520 5515 5509 5502 5496 5489
5597 5597 5607 5588 5576 5571 5598 5609 5629 5651 5658 5667 5670 5670 5672 5670 5663 5657 5650 5645 5641 5636 5631 5626 5620 5613 5606 5600 5593 5587 5581 5576 5572 5566 5560 5554 5548 5541 5535 5529 5524 5519 5514 5508 5502 5495 5488 5482 5475
5598 5592 5579 5578 5571 5574 5599 5610 5628 5647 5662 5668 5666 5666 5669 5665 5656 5649 5642 5637 5633 5628 5622 5617 5612 5606 5599 5592 5586 5579 5572 5567 5562 5556 5551 5545 5539 5532 5525 5519 5514 5507 5501 5495 5489 5482 5475 5468 5460
5581 5581 5583 5573 5571 5568 5578 5627 5644 5652 5658 5658 5660 5662 5662 5657 5647 5638 5632 5627 5622 5617 5611 5607 5602 5597 5590 5584 5577 5571 5564 5558 5552 5547 5542 5536 5530 5523 5516 5510 5504 5497 5489 5483 5476 5469 5461 5454 5446
5578 5581 5577 5566 5560 5559 5579 5635 5652 5649 5648 5647 5649 5650 5649 5645 5635 5626 5620 5614 5610 5606 5602 5599 5595 5590 5584 5577 5570 5563 5556 5550 5544 5539 5532 5526 5520 5514 5507 5501 5493 5486 5478 5470 5463 5455 5448 5441 5434